Meteo Giornale » Osservazioni meteo Gran Bretagna » Linton-On-Ouse

ore: 05:50 - Osservazioni Meteo Linton-On-Ouse
Lat. 54° 3' N Lon. 1° 15' W Alt. 16 metri s.l.m.

sereno Europe/London

12 °C

Sereno

Temp. 24 Ore

11 °C

16 °C

Ovest

22.2 Km/h

Dew point 10 °C

Umidità 87 %

Visibilità  10 Km

Il sole sorge alle ore 07:49

Il sole tramonta alle ore 17:49

Data e Ora Cielo e Fenomeni T °C DP °C Um. % Pres. hPa Vis. km Vento km/h
Oggi h: 05:50 sereno Sereno 12 10 87 1026 10 O 22.2
Oggi h: 04:50 sereno Sereno 12 10 87 1026 10 O/NO 18.5
Oggi h: 03:50 sereno Sereno 12 10 87 1026 10 O 24
Oggi h: 02:50 sereno Sereno 13 11 87 1026 10 O/NO 29.6
Oggi h: 01:50 poco_nuvoloso Poco Nuvoloso 13 11 87 1026 10 O 24
Oggi h: 00:50 poco_nuvoloso Poco Nuvoloso 13 11 87 1026 10 O/NO 27.8
Ieri h: 23:50 molto_nuvoloso Molto Nuvoloso 13 11 87 1026 10 O 27.8
Ieri h: 22:50 molto_nuvoloso Molto Nuvoloso 13 11 87 1026 10 O 22.2
Ieri h: 21:50 nuvoloso Nuvoloso 13 11 87 1026 10 O 33.3
Ieri h: 20:50 molto_nuvoloso Molto Nuvoloso 13 11 87 1026 10 O 27.8
Ieri h: 19:50 nuvoloso Nuvoloso 13 11 87 1026 10 O 24
Ieri h: 18:50 coperto Coperto 13 10 81 1026 10 O 20.3
Ieri h: 17:50 molto_nuvoloso Molto Nuvoloso 13 10 81 1026 10 O 24
Ieri h: 16:50 poco_nuvoloso Poco Nuvoloso 13 10 81 1025 10 O 27.8
Ieri h: 15:50 poco_nuvoloso Poco Nuvoloso 15 10 72 1025 10 O 29.6
Ieri h: 14:50 poco_nuvoloso Poco Nuvoloso 15 10 72 1025 10 O 29.6
Ieri h: 13:50 nuvoloso Nuvoloso 15 9 67 1025 10 O 31.5
Ieri h: 12:50 nuvoloso Nuvoloso 16 9 63 1026 10 O/NO 27.8
Ieri h: 11:50 poco_nuvoloso Poco Nuvoloso 15 9 67 1026 10 O 25.9
Ieri h: 10:50 sereno Sereno 13 8 71 1025 10 O 35.2
Ieri h: 09:50 sereno Sereno 12 7 71 1026 10 O 22.2
Ieri h: 08:50 sereno Sereno 12 7 71 1025 10 O/NO 25.9
Ieri h: 07:50 sereno Sereno 11 7 76 1026 10 O 27.8
Ieri h: 06:50 sereno Sereno 11 7 76 1026 10 O/NO 27.8